Location: Frankfurt am Main
(50.1109°N, 8.6821°E)
Time: 06:56:22
(UTC+02:00)

POLYITAN 1 - Visible Passes

Search period start: 26 June 2022 00:00
Search period end: 06 July 2022 00:00
Orbit: 585 x 607 km, 98.0° (Epoch: 25 June)

Date Brightness Start Highest point End Pass type
(mag) Time Alt. Az. Time Alt. Az. Time Alt. Az.
26 Jun ? 02:29:20 10° NE 02:32:53 25° E 02:35:50 13° SE visible
26 Jun ? 04:04:41 10° N 04:08:36 38° WNW 04:12:30 10° SW visible
27 Jun ? 02:39:04 10° NNE 02:42:50 31° E 02:45:50 14° SSE visible
27 Jun ? 04:14:42 10° N 04:18:27 31° WNW 04:22:11 10° SW visible
28 Jun ? 02:48:49 10° NNE 02:52:48 38° E 02:55:49 16° SSE visible
28 Jun ? 04:24:45 10° N 04:28:16 26° WNW 04:31:47 10° WSW visible
29 Jun ? 02:58:37 10° NNE 03:02:44 48° E 03:05:49 17° S visible
30 Jun ? 03:08:26 10° NNE 03:12:38 61° E 03:15:47 17° S visible
01 Jul ? 03:18:17 10° NNE 03:22:32 76° ESE 03:25:46 17° S visible
02 Jul ? 01:54:43 10° ENE 01:56:12 12° E 01:57:40 10° ESE visible
02 Jul ? 03:28:10 10° NNE 03:32:25 86° WNW 03:35:44 16° SSW visible
03 Jul ? 02:03:51 10° NE 02:06:12 14° E 02:08:32 10° ESE visible
03 Jul ? 03:38:03 10° N 03:42:17 70° WNW 03:45:41 15° SSW visible
04 Jul ? 02:13:16 10° NE 02:16:10 18° E 02:18:59 10° SE visible
04 Jul ? 03:47:58 10° N 03:52:08 56° WNW 03:55:39 14° SSW visible
05 Jul ? 02:22:49 10° NE 02:26:08 22° E 02:28:56 12° SE visible
05 Jul ? 03:57:54 10° N 04:01:58 45° WNW 04:05:36 12° SW visible
